TimeEDT,TemperatureF,Dew PointF,Humidity,Sea Level PressureIn,VisibilityMPH,Wind Direction,Wind SpeedMPH,Gust SpeedMPH,PrecipitationIn,Events,Conditions,WindDirDegrees,DateUTC
12:06 AM,59.0,57.2,94,30.20,5.0,Calm,Calm,-,N/A,,Partly Cloudy,0,2013-08-20 04:06:00
12:51 AM,60.1,59.0,96,30.19,10.0,Calm,Calm,-,N/A,,Mostly Cloudy,0,2013-08-20 04:51:00
1:31 AM,60.8,57.2,88,30.20,10.0,Calm,Calm,-,N/A,,Scattered Clouds,0,2013-08-20 05:31:00
1:40 AM,59.0,57.2,94,30.20,4.0,Calm,Calm,-,N/A,,Mostly Cloudy,0,2013-08-20 05:40:00
1:51 AM,59.0,57.0,93,30.18,1.5,Calm,Calm,-,N/A,,Overcast,0,2013-08-20 05:51:00
2:15 AM,57.2,55.4,94,30.19,0.5,Calm,Calm,-,N/A,Fog,Fog,0,2013-08-20 06:15:00
2:51 AM,57.0,55.9,96,30.18,1.0,Calm,Calm,-,N/A,,Mist,0,2013-08-20 06:51:00
3:17 AM,59.0,57.2,94,30.19,3.0,Calm,Calm,-,N/A,,Overcast,0,2013-08-20 07:17:00
3:35 AM,59.0,57.2,94,30.20,1.8,Calm,Calm,-,N/A,,Overcast,0,2013-08-20 07:35:00
3:51 AM,60.1,57.9,93,30.18,2.5,Calm,Calm,-,N/A,,Overcast,0,2013-08-20 07:51:00
3:58 AM,60.8,57.2,88,30.20,4.0,Calm,Calm,-,N/A,,Overcast,0,2013-08-20 07:58:00
4:07 AM,60.8,59.0,94,30.20,1.8,Calm,Calm,-,N/A,,Overcast,0,2013-08-20 08:07:00
4:19 AM,60.8,59.0,94,30.20,0.8,Calm,Calm,-,N/A,,Mist,0,2013-08-20 08:19:00
4:31 AM,60.8,57.2,88,30.20,2.0,Calm,Calm,-,N/A,,Overcast,0,2013-08-20 08:31:00
4:39 AM,60.8,57.2,88,30.20,4.0,Calm,Calm,-,N/A,,Overcast,0,2013-08-20 08:39:00
4:51 AM,60.1,57.9,93,30.18,2.5,Calm,Calm,-,N/A,,Overcast,0,2013-08-20 08:51:00
5:00 AM,60.8,57.2,88,30.20,5.0,Calm,Calm,-,N/A,,Overcast,0,2013-08-20 09:00:00
5:48 AM,60.8,59.0,94,30.21,1.8,Calm,Calm,-,N/A,,Overcast,0,2013-08-20 09:48:00
5:51 AM,60.1,59.0,96,30.19,1.5,Calm,Calm,-,N/A,,Overcast,0,2013-08-20 09:51:00
6:01 AM,60.8,59.0,94,30.22,3.0,Calm,Calm,-,N/A,,Overcast,0,2013-08-20 10:01:00
6:34 AM,60.8,57.2,88,30.22,2.0,Calm,Calm,-,N/A,,Overcast,0,2013-08-20 10:34:00
6:46 AM,60.8,57.2,88,30.23,1.0,Calm,Calm,-,N/A,,Mist,0,2013-08-20 10:46:00
6:51 AM,59.0,57.9,96,30.22,0.5,Calm,Calm,-,N/A,Fog,Fog,0,2013-08-20 10:51:00
7:34 AM,59.0,57.2,94,30.24,1.2,SW,3.5,-,N/A,,Overcast,220,2013-08-20 11:34:00
7:51 AM,59.0,57.9,96,30.24,2.5,Calm,Calm,-,N/A,,Overcast,0,2013-08-20 11:51:00
8:20 AM,60.8,59.0,94,30.25,1.2,Calm,Calm,-,N/A,,Overcast,0,2013-08-20 12:20:00
8:47 AM,60.8,57.2,88,30.26,0.8,SW,3.5,-,N/A,,Mist,230,2013-08-20 12:47:00
8:51 AM,60.1,59.0,96,30.26,0.8,WSW,3.5,-,N/A,,Mist,240,2013-08-20 12:51:00
9:02 AM,60.8,59.0,94,30.26,1.2,Calm,Calm,-,N/A,,Overcast,0,2013-08-20 13:02:00
9:32 AM,60.8,59.0,94,30.27,2.5,Calm,Calm,-,N/A,,Overcast,0,2013-08-20 13:32:00
9:41 AM,60.8,60.8,100,30.27,4.0,Calm,Calm,-,N/A,,Overcast,0,2013-08-20 13:41:00
9:51 AM,61.0,59.0,93,30.27,5.0,Calm,Calm,-,N/A,,Overcast,0,2013-08-20 13:51:00
10:51 AM,64.9,61.0,87,30.27,10.0,Calm,Calm,-,N/A,,Overcast,0,2013-08-20 14:51:00
11:08 AM,66.2,60.8,83,30.28,10.0,Calm,Calm,-,N/A,,Overcast,0,2013-08-20 15:08:00
11:34 AM,71.6,62.6,73,30.28,10.0,NNW,6.9,-,N/A,,Scattered Clouds,340,2013-08-20 15:34:00
11:51 AM,73.0,64.0,73,30.26,10.0,NNW,4.6,-,N/A,,Clear,340,2013-08-20 15:51:00
12:51 PM,75.0,61.0,62,30.25,10.0,Variable,3.5,-,N/A,,Clear,0,2013-08-20 16:51:00
1:51 PM,77.0,61.0,58,30.23,10.0,Calm,Calm,-,N/A,,Clear,0,2013-08-20 17:51:00
2:51 PM,79.0,60.1,52,30.21,10.0,Variable,3.5,-,N/A,,Clear,0,2013-08-20 18:51:00
3:51 PM,80.1,59.0,48,30.19,10.0,Calm,Calm,-,N/A,,Clear,0,2013-08-20 19:51:00
4:51 PM,80.1,59.0,48,30.18,10.0,NNW,4.6,-,N/A,,Clear,340,2013-08-20 20:51:00
5:51 PM,80.1,59.0,48,30.17,10.0,NW,3.5,-,N/A,,Clear,310,2013-08-20 21:51:00
6:51 PM,78.1,61.0,56,30.17,10.0,NNW,4.6,-,N/A,,Clear,340,2013-08-20 22:51:00
7:51 PM,70.0,64.0,81,30.19,10.0,Calm,Calm,-,N/A,,Clear,0,2013-08-20 23:51:00
8:51 PM,64.9,62.1,90,30.22,10.0,Calm,Calm,-,N/A,,Clear,0,2013-08-21 00:51:00
9:51 PM,63.0,61.0,93,30.24,10.0,Calm,Calm,-,N/A,,Clear,0,2013-08-21 01:51:00
10:51 PM,62.1,60.1,93,30.23,9.0,Calm,Calm,-,N/A,,Clear,0,2013-08-21 02:51:00
11:51 PM,60.1,57.9,93,30.23,8.0,Calm,Calm,-,N/A,,Clear,0,2013-08-21 03:51:00